Location: Unspecified
(0.0000°N, 0.0000°E)
Time: 03:31:27
(UTC+00:00)

Envisat - Pass Details

Date: 19 June 2023
Orbit: 763 x 764 km, 98.2° (Epoch: 02 October)

Event Time Altitude Azimuth Distance (km) Brightness Sun altitude
Rises 04:18:33 0° 344° (NNW) 3,213 6.4 -23.4°
Reaches altitude 10° 04:21:26 10° 327° (NNW) 2,291 5.4 -22.8°
Enters shadow 04:22:39 15° 315° (NW) 1,993 5.0 -22.5°
